ZL2ARL Weather Reports


Display with metric or nautical units.
time (UTC)temp
F
wind
direction
speed
MPH
gust
MPH
rain 1hr
in
rain 24hr
in
rain mn
in
humidity
%
barometer
mb
20260510032017 55 124 13.0 27.0 0.00 0.00 0.00 78 1000.4
20260510031032 58 141 13.0 22.0 0.00 0.00 0.00 76 999.7
20260510030027 61 157 11.0 22.0 0.00 0.00 0.00 70 999.5
20260510025042 65 162 8.0 16.0 0.00 0.00 0.00 63 999.4
20260510024037 65 174 7.0 11.0 0.00 0.00 0.00 59 999.0
20260510023032 64 169 8.0 18.0 0.00 0.00 0.00 57 998.6
20260510022027 65 337 6.0 9.0 0.00 0.00 0.00 59 998.0
20260510021022 64 323 8.0 11.0 0.00 0.00 0.00 62 997.9
20260510020037 63 335 8.0 13.0 0.00 0.00 0.00 62 997.8
20260510015033 63 322 8.0 14.0 0.00 0.00 0.00 62 997.7
20260510014048 63 332 9.0 14.0 0.00 0.00 0.00 62 997.7
20260510013043 62 341 8.0 15.0 0.00 0.00 0.00 63 997.5
20260510012018 62 335 10.0 17.0 0.00 0.00 0.00 64 997.7
20260510011053 61 350 13.0 18.0 0.00 0.00 0.00 64 997.7
20260510010028 61 335 9.0 16.0 0.00 0.00 0.00 65 997.7
20260510005023 61 353 12.0 19.0 0.00 0.00 0.00 67 997.5
20260510004059 61 350 11.0 17.0 0.00 0.00 0.00 66 997.7
20260510003034 60 326 12.0 19.0 0.00 0.00 0.00 66 997.7
20260510002029 60 327 15.0 26.0 0.00 0.00 0.00 69 997.5
20260510001024 60 340 16.0 25.0 0.00 0.00 0.00 68 997.6
20260510000019 60 329 13.0 22.0 0.00 0.00 0.00 68 997.8
20260509235035 60 343 14.0 20.0 0.00 0.00 0.00 68 997.8
20260509234029 59 328 14.0 26.0 0.00 0.00 0.00 69 997.7
20260509233025 59 337 16.0 28.0 0.00 0.00 0.00 69 997.8
20260509232020 59 340 15.0 25.0 0.00 0.00 0.00 69 997.7
20260509231035 59 332 17.0 26.0 0.00 0.00 0.00 69 997.8
20260509230030 59 342 17.0 28.0 0.00 0.00 0.00 69 998.0
20260509225026 58 329 16.0 24.0 0.00 0.00 0.00 69 997.8
20260509224040 59 329 16.0 25.0 0.00 0.00 0.00 68 997.9
20260509223016 59 332 15.0 31.0 0.00 0.00 0.00 67 997.9
20260509222035 58 330 14.0 23.0 0.00 0.00 0.00 68 998.0
20260509221026 58 322 16.0 25.0 0.00 0.00 0.00 69 997.9
20260509220021 58 324 12.0 20.0 0.00 0.00 0.00 71 998.1
20260509215016 57 336 14.0 25.0 0.00 0.00 0.00 71 997.9
20260509214032 57 334 17.0 25.0 0.00 0.00 0.00 71 998.0
20260509213027 57 327 13.0 24.0 0.00 0.00 0.00 73 997.9
20260509212022 56 335 13.0 18.0 0.00 0.00 0.00 73 998.1
20260509211017 56 317 11.0 18.0 0.00 0.00 0.00 74 997.8
20260509210032 55 334 17.0 25.0 0.00 0.00 0.00 74 997.8
20260509205047 55 331 15.0 23.0 0.00 0.00 0.00 75 997.9
20260509204022 54 334 9.0 17.0 0.00 0.00 0.00 76 997.8
20260509203018 54 348 11.0 18.0 0.00 0.00 0.00 76 997.9
20260509202033 54 336 13.0 21.0 0.00 0.00 0.00 76 997.8
20260509201028 53 337 11.0 19.0 0.00 0.00 0.00 77 997.6
20260509200023 53 337 13.0 23.0 0.00 0.00 0.00 77 997.7
20260509195038 52 342 10.0 16.0 0.00 0.00 0.00 78 997.9
20260509194033 52 336 10.0 19.0 0.00 0.00 0.00 76 997.8
20260509193028 53 336 13.0 20.0 0.00 0.00 0.00 76 997.6
20260509192023 52 335 15.0 24.0 0.00 0.00 0.00 76 997.3
20260509191018 52 340 12.0 17.0 0.00 0.00 0.00 76 997.6
20260509190035 52 335 9.0 15.0 0.00 0.00 0.00 77 997.8
20260509185049 52 339 10.0 17.0 0.00 0.00 0.00 77 997.4
20260509184024 52 346 10.0 23.0 0.00 0.00 0.00 78 997.3
20260509183039 52 331 9.0 14.0 0.00 0.00 0.00 79 997.2
20260509182034 52 355 10.0 18.0 0.00 0.00 0.00 79 997.3
20260509181029 52 343 9.0 15.0 0.00 0.00 0.00 78 997.3
20260509180025 52 336 13.0 23.0 0.00 0.00 0.00 78 997.4
20260509175020 52 343 15.0 21.0 0.00 0.00 0.00 78 997.3
20260509174036 52 344 14.0 23.0 0.00 0.00 0.00 77 997.2
20260509173030 52 348 14.0 25.0 0.00 0.00 0.00 76 997.1
20260509172025 52 349 14.0 22.0 0.00 0.00 0.00 76 997.3
20260509171021 52 333 12.0 19.0 0.00 0.00 0.00 77 997.4
20260509170056 52 340 13.0 22.0 0.00 0.00 0.00 76 997.1
20260509165031 52 351 15.0 25.0 0.00 0.00 0.00 77 997.3
20260509164026 52 340 10.0 16.0 0.00 0.00 0.00 77 997.3
20260509163021 52 355 11.0 19.0 0.00 0.00 0.00 76 997.2
20260509162016 52 348 13.0 21.0 0.00 0.00 0.00 74 996.9
20260509161051 52 342 12.0 19.0 0.00 0.00 0.00 74 997.0
20260509160026 52 344 12.0 19.0 0.00 0.00 0.00 74 996.9
20260509155021 52 347 12.0 18.0 0.00 0.00 0.00 74 996.9
20260509154016 52 331 13.0 22.0 0.00 0.00 0.00 75 997.0
20260509153051 53 336 13.0 22.0 0.00 0.00 0.00 75 997.1
20260509152026 53 335 20.0 30.0 0.00 0.00 0.00 75 997.1
20260509151021 53 341 17.0 26.0 0.00 0.00 0.00 76 997.2
20260509150016 52 341 13.0 19.0 0.00 0.00 0.00 76 997.2
20260509145032 52 341 11.0 19.0 0.00 0.00 0.00 76 997.3
20260509144027 52 341 13.0 21.0 0.00 0.00 0.00 75 997.4
20260509143022 52 356 16.0 25.0 0.00 0.00 0.00 76 997.4
20260509142057 52 352 14.0 23.0 0.00 0.00 0.00 77 997.8
20260509141032 52 345 13.0 20.0 0.00 0.00 0.00 78 997.9
20260509140027 53 335 12.0 23.0 0.00 0.00 0.00 79 997.7
20260509135023 52 346 15.0 25.0 0.00 0.00 0.00 80 997.9
20260509134017 52 341 14.0 25.0 0.00 0.00 0.00 81 997.8
20260509133032 52 331 14.0 26.0 0.00 0.00 0.00 81 997.8
20260509132027 53 325 14.0 21.0 0.00 0.00 0.00 80 997.9
20260509131023 52 324 15.0 29.0 0.00 0.00 0.00 81 997.6
20260509130018 53 324 16.0 25.0 0.00 0.00 0.00 81 997.6
20260509125033 53 329 15.0 25.0 0.00 0.00 0.00 81 997.6
20260509124028 53 329 12.0 20.0 0.00 0.00 0.00 80 997.7
20260509123023 53 338 15.0 21.0 0.00 0.00 0.00 80 997.5
20260509122038 53 337 17.0 30.0 0.00 0.00 0.00 79 997.3
20260509121034 53 329 15.0 23.0 0.00 0.00 0.00 78 997.5
20260509120029 53 318 16.0 32.0 0.00 0.00 0.00 78 997.9
20260509115024 53 305 21.0 36.0 0.00 0.00 0.00 77 997.9
20260509114019 53 318 15.0 26.0 0.00 0.00 0.00 77 997.9
20260509113034 53 319 16.0 29.0 0.00 0.00 0.00 77 997.8
20260509112029 53 315 18.0 29.0 0.00 0.00 0.00 76 998.0
20260509111024 53 325 16.0 25.0 0.00 0.00 0.00 75 998.0
20260509110019 53 319 14.0 23.0 0.00 0.00 0.00 74 998.1
20260509105035 53 327 13.0 21.0 0.00 0.00 0.00 72 998.0
20260509104030 54 320 16.0 36.0 0.00 0.00 0.00 71 998.2
20260509103025 53 325 14.0 28.0 0.00 0.00 0.00 73 998.2
20260509102020 54 326 14.0 29.0 0.00 0.00 0.00 73 998.1
20260509101035 54 315 17.0 28.0 0.00 0.00 0.00 71 998.3
20260509100030 54 306 13.0 27.0 0.00 0.00 0.00 70 998.2
20260509095025 54 309 17.0 35.0 0.00 0.00 0.00 72 998.1
20260509094020 54 317 15.0 29.0 0.00 0.01 0.00 74 997.8
20260509093035 54 310 17.0 29.0 0.00 0.01 0.00 74 997.9
20260509092030 54 312 18.0 32.0 0.00 0.03 0.00 75 998.0
20260509091025 54 318 14.0 23.0 0.00 0.07 0.00 76 998.0
20260509090100 54 337 12.0 17.0 0.00 0.12 0.00 75 997.9
20260509085035 54 322 15.0 26.0 0.00 0.27 0.00 74 997.8
20260509084030 54 326 13.0 26.0 0.00 0.37 0.00 74 997.5
20260509083025 55 313 18.0 33.0 0.00 0.46 0.00 73 997.3
20260509082020 55 308 21.0 34.0 0.00 0.49 0.00 74 997.5
20260509081035 55 312 21.0 34.0 0.00 0.54 0.00 75 997.5
20260509080030 55 313 22.0 33.0 0.00 0.55 0.00 75 997.3
20260509075025 55 316 23.0 40.0 0.00 0.56 0.00 75 997.1
20260509074020 55 312 24.0 41.0 0.00 0.57 0.00 75 996.9
20260509073055 55 307 20.0 33.0 0.00 0.60 0.00 74 997.1
20260509072030 55 306 21.0 30.0 0.00 0.60 0.00 76 997.4
20260509071045 55 311 23.0 34.0 0.00 0.62 0.00 75 997.3
20260509070021 55 300 25.0 36.0 0.00 0.65 0.00 76 997.5
20260509065016 55 301 22.0 41.0 0.00 0.69 0.00 78 997.4
20260509064031 55 307 19.0 31.0 0.00 0.73 0.00 80 997.2
20260509063026 55 314 19.0 33.0 0.00 0.75 0.00 80 997.0
20260509062021 55 311 18.0 30.0 0.00 0.75 0.00 81 997.1
20260509061017 54 318 19.0 30.0 0.00 0.75 0.00 83 997.2
20260509060032 54 327 15.0 26.0 0.00 0.77 0.00 83 997.2
20260509055026 55 321 22.0 33.0 0.00 0.77 0.00 83 997.1
20260509054021 55 322 15.0 23.0 0.00 0.78 0.00 82 997.1
20260509053036 55 324 16.0 28.0 0.00 0.78 0.00 82 997.1
20260509052030 55 336 16.0 26.0 0.00 0.78 0.00 82 997.2
20260509051025 55 329 15.0 25.0 0.00 0.78 0.00 82 997.2
20260509050019 55 333 15.0 24.0 0.00 0.78 0.00 82 997.0
20260509045034 56 334 16.0 27.0 0.00 0.78 0.00 80 996.9
20260509044028 56 318 18.0 28.0 0.00 0.78 0.00 80 997.1
20260509043022 57 312 17.0 28.0 0.00 0.78 0.00 79 997.2
20260509042018 57 306 17.0 29.0 0.00 0.78 0.00 79 997.5
20260509041033 57 309 18.0 30.0 0.00 0.78 0.00 79 997.5
20260509040028 57 302 15.0 27.0 0.00 0.78 0.00 81 997.5
20260509035043 57 317 12.0 20.0 0.00 0.78 0.00 82 997.7
20260509034018 57 326 11.0 20.0 0.00 0.78 0.00 82 997.6
20260509033033 57 325 11.0 20.0 0.00 0.78 0.00 81 997.5